EW5206 Weather Reports


time (UTC)temp
C
wind
direction
speed
KPH
gust
KPH
rain 1hr
cm
rain 24hr
cm
rain mn
cm
humidity
%
barometer
mb
20260508101542 5 0.0 0.0 0.00 0.00 0.00 75 1016.4
20260508100041 5 0.0 0.0 0.00 0.00 0.00 74 1016.4
20260508094603 5 0.0 0.0 0.00 0.00 0.00 74 1016.2
20260508093039 5 0.0 0.0 0.00 0.00 0.00 73 1016.1
20260508091540 6 0.0 0.0 0.00 0.00 0.00 73 1016.1
20260508090034 6 0.0 0.0 0.00 0.00 0.00 72 1015.8
20260508084532 6 0.0 0.0 0.00 0.00 0.00 72 1015.8
20260508083030 6 0.0 0.0 0.00 0.00 0.00 71 1015.8
20260508081554 6 0.0 0.0 0.00 0.00 0.00 69 1015.6
20260508080024 7 0.0 0.0 0.00 0.00 0.00 66 1015.5
20260508074523 7 0.0 0.0 0.00 0.00 0.00 64 1015.5
20260508073019 7 0.0 0.0 0.00 0.00 0.00 62 1015.1
20260508071534 8 0.0 0.0 0.00 0.00 0.00 61 1015.0
20260508070116 8 0.0 0.0 0.00 0.00 0.00 59 1015.0
20260508064514 8 0.0 0.0 0.00 0.00 0.00 59 1014.9
20260508063027 8 0.0 0.0 0.00 0.00 0.00 59 1015.0
20260508061511 8 0.0 0.0 0.00 0.00 0.00 58 1015.1
20260508060010 8 0.0 0.0 0.00 0.00 0.00 58 1015.1
20260508054508 8 0.0 0.0 0.00 0.00 0.00 59 1015.0
20260508053006 9 0.0 0.0 0.00 0.00 0.00 61 1014.8
20260508051501 9 0.0 0.0 0.00 0.00 0.00 62 1014.6
20260508050058 9 0.0 0.0 0.00 0.00 0.00 61 1014.4
20260508044600 9 0.0 0.0 0.00 0.00 0.00 63 1014.1
20260508043058 9 0.0 0.0 0.00 0.00 0.00 61 1014.1
20260508041553 10 0.0 0.0 0.00 0.00 0.00 61 1014.0
20260508040055 10 0.0 0.0 0.00 0.00 0.00 61 1014.0
20260508034549 10 0.0 0.0 0.00 0.00 0.00 61 1013.7
20260508033047 10 0.0 0.0 0.00 0.00 0.00 62 1013.8
20260508031544 10 0.0 0.0 0.00 0.00 0.00 64 1013.7
20260508030042 10 0.0 0.0 0.00 0.00 0.00 63 1013.4
20260508024548 10 0.0 0.0 0.00 0.00 0.00 63 1013.3
20260508023038 10 0.0 0.0 0.00 0.00 0.00 64 1013.0
20260508021535 10 0.0 0.0 0.00 0.00 0.00 65 1012.5
20260508020033 10 0.0 0.0 0.00 0.00 0.00 65 1012.3
20260508014537 10 0.0 0.0 0.00 0.00 0.00 66 1011.9
20260508013029 11 0.0 0.0 0.00 0.00 0.00 68 1011.9
20260508011528 11 0.0 0.0 0.00 0.00 0.00 69 1011.8
20260508010033 11 0.0 0.0 0.00 0.00 0.00 66 1011.5
20260508004523 11 0.0 0.0 0.00 0.00 0.00 65 1011.5
20260508003023 12 0.0 0.0 0.00 0.00 0.00 64 1011.4
20260508001521 12 0.0 0.0 0.00 0.00 0.00 64 1011.3
20260508000020 12 0.0 0.0 0.00 0.00 0.00 61 1011.0
20260507234519 12 0.0 0.0 0.00 0.00 0.00 60 1011.0
20260507233034 13 0.0 0.0 0.00 0.00 0.00 59 1010.7
20260507231527 13 0.0 0.0 0.00 0.00 0.00 61 1010.6
20260507230018 13 0.0 0.0 0.00 0.00 0.00 59 1010.3
20260507224517 13 0.0 0.0 0.00 0.00 0.00 59 1010.3
20260507223017 14 0.0 0.0 0.00 0.00 0.00 62 1010.2
20260507221516 14 0.0 0.0 0.00 0.00 0.00 61 1010.0
20260507220019 14 0.0 0.0 0.00 0.00 0.00 60 1010.0
20260507214515 15 0.0 0.0 0.00 0.00 0.00 63 1009.8
20260507213015 15 0.0 0.0 0.00 0.00 0.00 62 1009.5
20260507211519 15 0.0 0.0 0.00 0.00 0.00 61 1009.3
20260507210012 15 0.0 0.0 0.00 0.00 0.00 63 1009.2
20260507204511 15 0.0 0.0 0.00 0.00 0.00 64 1009.2
20260507203011 15 0.0 0.0 0.00 0.00 0.00 65 1009.0
20260507201510 15 0.0 0.0 0.00 0.00 0.00 66 1009.0
20260507200007 15 0.0 0.0 0.00 0.00 0.00 69 1009.1
20260507194506 15 0.0 0.0 0.00 0.00 0.00 72 1009.3
20260507193004 14 0.0 0.0 0.00 0.00 0.00 76 1009.6
20260507191505 13 0.0 0.0 0.00 0.00 0.00 76 1010.1
20260507190005 13 0.0 0.0 0.00 0.00 0.00 78 1010.1
20260507184503 13 0.0 0.0 0.00 0.00 0.00 78 1010.2
20260507183009 13 0.0 0.0 0.00 0.00 0.00 80 1010.3
20260507181502 13 0.0 0.0 0.00 0.00 0.00 79 1010.4
20260507180002 13 0.0 0.0 0.00 0.00 0.00 81 1010.2
20260507174501 13 0.0 0.0 0.00 0.00 0.00 79 1010.4
20260507173104 13 0.0 0.0 0.00 0.00 0.00 80 1010.4
20260507171606 13 0.0 0.0 0.00 0.00 0.00 81 1010.4
20260507170104 13 0.0 0.0 0.00 0.00 0.00 81 1010.5
20260507164605 13 0.0 0.0 0.00 0.00 0.00 81 1010.4
20260507163059 12 0.0 0.0 0.00 0.00 0.00 83 1010.6
20260507161558 12 0.0 0.0 0.00 0.00 0.00 81 1010.7
20260507160058 12 0.0 0.0 0.00 0.00 0.00 80 1010.6
20260507154559 12 0.0 0.0 0.00 0.00 0.00 82 1010.7
20260507153101 12 0.0 0.0 0.00 0.00 0.00 85 1010.7
20260507151555 12 0.0 0.0 0.00 0.00 0.00 84 1010.8
20260507150056 12 0.0 0.0 0.00 0.00 0.00 83 1010.9
20260507144555 12 0.0 0.0 0.00 0.00 0.00 85 1010.8
20260507143059 12 0.0 0.0 0.00 0.00 0.00 87 1010.7
20260507141554 12 0.0 0.0 0.00 0.00 0.00 89 1010.3
20260507140050 12 0.0 0.0 0.00 0.00 0.00 90 1010.6
20260507134550 12 0.0 0.0 0.00 0.00 0.00 93 1010.3
20260507133102 12 0.0 0.0 0.00 0.00 0.00 93 1010.8
20260507131553 12 0.0 0.0 0.00 0.00 0.00 93 1010.8
20260507130104 12 0.0 0.0 0.00 0.00 0.00 94 1011.0
20260507124546 12 0.0 0.0 0.00 0.00 0.00 95 1010.7
20260507123046 12 0.0 0.0 0.00 0.00 0.00 95 1010.8
20260507121556 12 0.0 0.0 0.00 0.00 0.00 95 1010.7
20260507120053 12 0.0 0.0 0.00 0.00 0.00 95 1010.5
20260507114619 12 0.0 0.0 0.00 0.00 0.00 95 1010.6
20260507113041 12 0.0 0.0 0.00 0.00 0.00 96 1010.4
20260507111540 12 0.0 0.0 0.00 0.00 0.00 96 1010.4
20260507110039 12 0.0 0.0 0.00 0.00 0.00 96 1009.9
20260507104538 12 0.0 0.0 0.00 0.00 0.00 96 1010.0
20260507103037 12 0.0 0.0 0.00 0.00 0.00 96 1010.0